Погода в Сент-Огастине

США     29°52′02″N   81°17′09″W
темп.,
°C
ветер,
м/с
пор.,
м/с
влажн.,
%
обл.,
%
осадки,
мм/ч
давл.,
гПа
погр.,
м
27 июля, вт
вт2723:00+26ююз22875 1.8 101459
02:00+25ююз379040 2.4 1014194
05:00+25ююз349136 0.2 1014119
08:00+25зюз258973 0.2 1015159
11:00+31з23635 0.0 1016720
14:00+33вюв445550 0.0 10141500
17:00+30юв566793 0.2 1014370
20:00+29ю3672100 0.4 1014201
28 июля, ср
ср2823:00+27юз488031 0.3 1015274
02:00+27з49817 0.3 1015412
05:00+25зюз378831 0.3 1014267
08:00+26з368382 0.4 1016262
11:00+31з3563100 0.4 1016633
14:00+32зсз3556100 0.5 1015883
17:00+32в2260100 0.4 1014968
20:00+27ю1282100 3.2 101551
29 июля, чт
чт2923:00+26с3387100 1.4 1015131
02:00+25зюз2387100 1.6 1015129
05:00+25з238994 0.7 1014114
08:00+25зсз249089 2.6 1015183
11:00+30зсз236640 1.8 1016540
14:00+30ссв2366100 8.7 1016465
17:00+29в3367100 0.1 1015322
20:00+28ю2279100 0.6 101545
30 июля, пт
пт3023:00+25ююз348977 0.0 1016121
02:00+25зюз368936 0.0 1015157
05:00+24юз24909 0.0 1015104
08:00+26зюз23865 0.0 1016139
11:00+32ююз02613 0.0 1017612
14:00+33юв335842 0.6 1016765
17:00+32юв446110 0.0 1015498
20:00+30ю46680 0.0 1015121
31 июля, сб
сб3123:00+28зюз39750 0.0 1016239
02:00+27зюз49780 0.0 1016293
05:00+26зюз39825 0.0 1016294
08:00+27юз388388 0.0 1017273
11:00+32юз35585 0.0 1017664
14:00+35зюз234965 0.0 10161514
17:00+33юв446061 0.0 1014452
20:00+30ссз3672100 0.4 1016148